Terminal Aerodrome Forecast
Issued by NWS

Home | Current Version | Previous Version | Text Only | Print | Product List | Glossary On
Versions: 1 2 3 4 5 6 7 8 9 10 11 12 13 14 15
000
FTPA31 PHFO 180540
TAFHOG
TAF
PHOG 180540Z 1806/1906 VRB04KT P6SM FEW030 SCT060
     FM182100 01009KT P6SM VCSH SCT025 BKN040
     FM190300 36005KT 5SM -SHRA BKN025 OVC040
      AMD LTD TO VIS AND WIND 1809/1816=

USA.gov is the U.S. government's official web portal to all federal, state and local government web resources and services.